TimeEDT,TemperatureF,Dew PointF,Humidity,Sea Level PressureIn,VisibilityMPH,Wind Direction,Wind SpeedMPH,Gust SpeedMPH,PrecipitationIn,Events,Conditions,WindDirDegrees,DateUTC
12:15 AM,30.7,25.2,80,30.29,10.0,Calm,Calm,-,N/A,,Clear,0,2013-03-29 04:15:00
12:55 AM,29.8,23.5,77,30.30,10.0,Calm,Calm,-,N/A,,Clear,0,2013-03-29 04:55:00
1:15 AM,29.1,24.1,81,30.30,10.0,Calm,Calm,-,N/A,,Clear,0,2013-03-29 05:15:00
1:35 AM,29.8,24.4,80,30.30,10.0,Calm,Calm,-,N/A,,Clear,0,2013-03-29 05:35:00
1:55 AM,28.6,23.7,82,30.30,10.0,Calm,Calm,-,N/A,,Clear,0,2013-03-29 05:55:00
2:15 AM,27.3,24.1,88,30.30,10.0,Calm,Calm,-,N/A,,Clear,0,2013-03-29 06:15:00
2:55 AM,28.6,24.3,84,30.30,10.0,Calm,Calm,-,N/A,,Clear,0,2013-03-29 06:55:00
3:15 AM,27.7,24.1,86,30.30,10.0,Calm,Calm,-,N/A,,Clear,0,2013-03-29 07:15:00
3:35 AM,27.0,24.3,90,30.30,10.0,Calm,Calm,-,N/A,,Clear,0,2013-03-29 07:35:00
3:55 AM,27.9,23.4,83,30.30,10.0,Calm,Calm,-,N/A,,Clear,0,2013-03-29 07:55:00
4:55 AM,24.8,22.8,92,30.30,10.0,Calm,Calm,-,N/A,,Clear,0,2013-03-29 08:55:00
5:15 AM,23.4,21.2,91,30.30,10.0,Calm,Calm,-,N/A,,Clear,0,2013-03-29 09:15:00
5:55 AM,23.0,21.7,95,30.30,10.0,Calm,Calm,-,N/A,,Clear,0,2013-03-29 09:55:00
6:15 AM,23.9,22.6,95,30.30,10.0,Calm,Calm,-,N/A,,Clear,0,2013-03-29 10:15:00
6:55 AM,23.7,21.7,92,30.31,10.0,Calm,Calm,-,N/A,,Clear,0,2013-03-29 10:55:00
7:15 AM,23.7,22.3,94,30.32,10.0,Calm,Calm,-,N/A,,Clear,0,2013-03-29 11:15:00
7:35 AM,23.7,21.9,93,30.33,10.0,Calm,Calm,-,N/A,,Clear,0,2013-03-29 11:35:00
7:55 AM,25.5,24.3,95,30.33,10.0,Calm,Calm,-,N/A,,Clear,0,2013-03-29 11:55:00
8:15 AM,29.8,25.9,85,30.33,10.0,Calm,Calm,-,N/A,,Clear,0,2013-03-29 12:15:00
8:35 AM,31.8,26.1,79,30.34,10.0,Calm,Calm,-,N/A,,Clear,0,2013-03-29 12:35:00
8:55 AM,33.8,27.7,78,30.33,10.0,Calm,Calm,-,N/A,,Clear,0,2013-03-29 12:55:00
9:15 AM,36.5,28.2,72,30.33,10.0,Calm,Calm,-,N/A,,Clear,0,2013-03-29 13:15:00
9:35 AM,40.5,29.3,64,30.33,10.0,Calm,Calm,-,N/A,,Clear,0,2013-03-29 13:35:00
9:55 AM,46.0,28.0,50,30.33,10.0,Calm,Calm,-,N/A,,Clear,0,2013-03-29 13:55:00
10:15 AM,48.4,26.4,42,30.32,10.0,NW,3.5,-,N/A,,Clear,310,2013-03-29 14:15:00
10:35 AM,49.5,26.2,40,30.32,10.0,NW,4.6,-,N/A,,Clear,320,2013-03-29 14:35:00
10:55 AM,50.4,25.3,38,30.32,10.0,SSW,3.5,-,N/A,,Clear,210,2013-03-29 14:55:00
11:15 AM,51.4,23.4,33,30.32,10.0,Calm,Calm,-,N/A,,Clear,0,2013-03-29 15:15:00
11:35 AM,51.8,22.8,32,30.31,10.0,WNW,4.6,-,N/A,,Clear,290,2013-03-29 15:35:00
11:55 AM,52.7,22.5,31,30.31,10.0,NE,3.5,-,N/A,,Clear,50,2013-03-29 15:55:00
12:15 PM,53.6,22.8,30,30.30,10.0,NNE,3.5,-,N/A,,Clear,20,2013-03-29 16:15:00
12:35 PM,53.8,23.2,30,30.29,10.0,North,4.6,-,N/A,,Clear,10,2013-03-29 16:35:00
12:55 PM,54.5,23.0,29,30.28,10.0,WSW,4.6,-,N/A,,Clear,240,2013-03-29 16:55:00
1:15 PM,55.4,23.4,29,30.26,10.0,North,4.6,-,N/A,,Clear,360,2013-03-29 17:15:00
1:35 PM,55.8,23.4,29,30.25,10.0,Calm,Calm,-,N/A,,Clear,0,2013-03-29 17:35:00
1:55 PM,56.3,23.0,28,30.24,10.0,SW,6.9,-,N/A,,Clear,220,2013-03-29 17:55:00
2:15 PM,57.2,23.0,27,30.23,10.0,WNW,4.6,-,N/A,,Clear,290,2013-03-29 18:15:00
2:35 PM,57.7,22.8,26,30.22,10.0,WNW,6.9,-,N/A,,Clear,290,2013-03-29 18:35:00
2:55 PM,56.7,21.6,26,30.21,10.0,SW,5.8,-,N/A,,Clear,230,2013-03-29 18:55:00
3:15 PM,57.9,21.4,24,30.20,10.0,Calm,Calm,-,N/A,,Clear,0,2013-03-29 19:15:00
3:35 PM,58.6,22.3,25,30.19,10.0,WSW,8.1,-,N/A,,Clear,250,2013-03-29 19:35:00
3:55 PM,59.9,22.5,24,30.18,10.0,WSW,6.9,-,N/A,,Clear,250,2013-03-29 19:55:00
4:15 PM,60.3,23.2,24,30.17,10.0,SSE,6.9,-,N/A,,Scattered Clouds,160,2013-03-29 20:15:00
4:35 PM,60.4,21.6,22,30.17,10.0,SSW,6.9,-,N/A,,Scattered Clouds,200,2013-03-29 20:35:00
4:55 PM,60.4,21.7,23,30.16,10.0,West,5.8,-,N/A,,Clear,270,2013-03-29 20:55:00
5:15 PM,61.0,22.3,23,30.16,10.0,WSW,10.4,-,N/A,,Clear,250,2013-03-29 21:15:00
5:35 PM,60.6,21.9,23,30.16,10.0,WNW,9.2,16.1,N/A,,Scattered Clouds,290,2013-03-29 21:35:00
5:55 PM,60.6,22.5,23,30.16,10.0,WSW,9.2,-,N/A,,Mostly Cloudy,240,2013-03-29 21:55:00
6:15 PM,60.4,22.3,23,30.16,10.0,WSW,5.8,-,N/A,,Mostly Cloudy,250,2013-03-29 22:15:00
6:35 PM,60.1,21.7,23,30.15,10.0,West,8.1,-,N/A,,Overcast,260,2013-03-29 22:35:00
6:55 PM,58.5,21.9,24,30.16,10.0,WNW,8.1,-,N/A,,Scattered Clouds,300,2013-03-29 22:55:00
7:15 PM,57.9,23.0,26,30.16,10.0,NW,5.8,-,N/A,,Clear,310,2013-03-29 23:15:00
7:35 PM,55.6,23.7,29,30.17,10.0,WNW,3.5,-,N/A,,Clear,290,2013-03-29 23:35:00
7:55 PM,54.3,24.8,32,30.17,10.0,Calm,Calm,-,N/A,,Scattered Clouds,0,2013-03-29 23:55:00
8:15 PM,53.4,25.0,33,30.18,10.0,Calm,Calm,-,N/A,,Mostly Cloudy,0,2013-03-30 00:15:00
8:35 PM,50.0,30.2,47,30.18,10.0,Calm,Calm,-,N/A,,Overcast,0,2013-03-30 00:35:00
8:55 PM,48.4,28.0,45,30.19,10.0,Calm,Calm,-,N/A,,Overcast,0,2013-03-30 00:55:00
9:15 PM,48.4,29.1,47,30.19,10.0,Calm,Calm,-,N/A,,Overcast,0,2013-03-30 01:15:00
9:35 PM,50.7,28.8,43,30.19,10.0,Calm,Calm,-,N/A,,Overcast,0,2013-03-30 01:35:00
9:55 PM,47.1,31.8,55,30.20,10.0,Calm,Calm,-,N/A,,Overcast,0,2013-03-30 01:55:00
10:15 PM,45.9,30.7,56,30.20,10.0,Calm,Calm,-,N/A,,Mostly Cloudy,0,2013-03-30 02:15:00
10:35 PM,46.4,28.6,50,30.20,10.0,Calm,Calm,-,N/A,,Scattered Clouds,0,2013-03-30 02:35:00
10:55 PM,41.4,30.0,64,30.21,10.0,Calm,Calm,-,N/A,,Clear,0,2013-03-30 02:55:00
11:15 PM,43.2,29.8,59,30.21,10.0,Calm,Calm,-,N/A,,Scattered Clouds,0,2013-03-30 03:15:00
11:35 PM,44.1,30.7,59,30.21,10.0,Calm,Calm,-,N/A,,Mostly Cloudy,0,2013-03-30 03:35:00
11:55 PM,43.5,29.8,59,30.21,10.0,Calm,Calm,-,N/A,,Scattered Clouds,0,2013-03-30 03:55:00